When you browse on this site, cookies collect data to enhance your experience and personalize the content and advertising you see.
Visit our Privacy Policy to learn more. By continuing to use the site, you agree to this use of cookies and data.
  • In Latvia
  • List of Countries
  • For 7 days
  • Water Temperature
  • Weather Map
  • Weather Widgets
  • user-avatar
    Login

    Hourly Weather Jamusukro

    Today, 21 September, Saturday

    Time Temperature Precipitation Wind Pressure Humidity
    00:00 +23°C° 0 mm 0 mps 753 mmHg 95%
    01:00 +23°C° 0 mm 0 mps 753 mmHg 96%
    02:00 +22°C° 0 mm 0 mps 752 mmHg 97%
    03:00 +22°C° 0 mm 0 mps 752 mmHg 97%
    04:00 +22°C° 0 mm 0 mps 753 mmHg 97%
    05:00 +23°C° 0 mm 0 mps 753 mmHg 96%
    06:00 +23°C° 0 mm 0 mps 754 mmHg 95%
    07:00 +25°C° 0 mm 0 mps 754 mmHg 86%
    08:00 +29°C° 0 mm 1 mps 754 mmHg 76%
    09:00 +31°C° 0 mm 1 mps 754 mmHg 67%
    10:00 +33°C° 0 mm 1 mps 753 mmHg 62%
    11:00 +34°C° 0 mm 1 mps 753 mmHg 57%
    12:00 +35°C° 0 mm 1 mps 752 mmHg 52%
    13:00 +34°C° 0.9 mm 1 mps 752 mmHg 58%
    14:00 +34°C° 0.9 mm 2 mps 751 mmHg 64%
    15:00 +32°C° 0.9 mm 2 mps 750 mmHg 70%
    16:00 +30°C° 0.8 mm 2 mps 751 mmHg 77%
    17:00 +28°C° 0.8 mm 2 mps 751 mmHg 85%
    18:00 +27°C° 0.8 mm 1 mps 752 mmHg 93%
    19:00 +27°C° 0 mm 1 mps 752 mmHg 94%
    20:00 +26°C° 0 mm 1 mps 752 mmHg 95%
    21:00 +26°C° 0 mm 1 mps 753 mmHg 97%
    22:00 +26°C° 0 mm 1 mps 753 mmHg 97%
    23:00 +24°C° 0 mm 0 mps 753 mmHg 97%

    Tomorrow, 22 September, Sunday

    Time Temperature Precipitation Wind Pressure Humidity
    00:00 +23°C° 0 mm 0 mps 753 mmHg 98%
    01:00 +23°C° 0 mm 0 mps 752 mmHg 98%
    02:00 +23°C° 0 mm 0 mps 752 mmHg 98%
    03:00 +23°C° 0 mm 0 mps 752 mmHg 98%
    04:00 +23°C° 0 mm 0 mps 752 mmHg 98%
    05:00 +23°C° 0 mm 0 mps 753 mmHg 97%
    06:00 +23°C° 0 mm 0 mps 753 mmHg 97%
    07:00 +27°C° 0 mm 1 mps 753 mmHg 90%
    08:00 +29°C° 0 mm 1 mps 753 mmHg 83%
    09:00 +30°C° 0 mm 2 mps 754 mmHg 76%
    10:00 +31°C° 0 mm 2 mps 753 mmHg 72%
    11:00 +32°C° 0 mm 2 mps 752 mmHg 68%
    12:00 +34°C° 0 mm 2 mps 752 mmHg 64%
    13:00 +32°C° 0.1 mm 2 mps 751 mmHg 66%
    14:00 +32°C° 0.1 mm 2 mps 751 mmHg 68%
    15:00 +32°C° 0.1 mm 2 mps 750 mmHg 69%
    16:00 +30°C° 0 mm 2 mps 751 mmHg 75%
    17:00 +29°C° 0 mm 2 mps 751 mmHg 81%
    18:00 +27°C° 0 mm 2 mps 751 mmHg 86%
    19:00 +27°C° 0.1 mm 1 mps 752 mmHg 89%
    20:00 +26°C° 0.1 mm 1 mps 752 mmHg 92%
    21:00 +26°C° 0.1 mm 1 mps 752 mmHg 95%
    22:00 +26°C° 0.1 mm 1 mps 752 mmHg 95%
    23:00 +26°C° 0.1 mm 1 mps 752 mmHg 95%

    Day after tomorrow, 23 September, Monday

    Time Temperature Precipitation Wind Pressure Humidity
    00:00 +26°C° 0.1 mm 1 mps 752 mmHg 95%
    01:00 +26°C° 0 mm 1 mps 752 mmHg 96%
    02:00 +25°C° 0 mm 1 mps 752 mmHg 97%
    03:00 +25°C° 0 mm 1 mps 751 mmHg 97%
    04:00 +25°C° 0 mm 1 mps 752 mmHg 97%
    05:00 +25°C° 0 mm 1 mps 752 mmHg 97%
    06:00 +25°C° 0 mm 1 mps 753 mmHg 97%
    07:00 +27°C° 0 mm 1 mps 753 mmHg 89%
    08:00 +29°C° 0 mm 1 mps 753 mmHg 81%
    09:00 +30°C° 0 mm 2 mps 754 mmHg 73%
    10:00 +31°C° 0.5 mm 2 mps 753 mmHg 71%
    11:00 +32°C° 0.5 mm 1 mps 753 mmHg 69%
    12:00 +32°C° 0.5 mm 1 mps 752 mmHg 67%
    13:00 +31°C° 2.1 mm 2 mps 752 mmHg 73%
    14:00 +30°C° 2.1 mm 2 mps 751 mmHg 79%
    15:00 +29°C° 2.1 mm 2 mps 751 mmHg 86%
    16:00 +28°C° 1.1 mm 2 mps 751 mmHg 89%
    17:00 +27°C° 1.1 mm 1 mps 752 mmHg 92%
    18:00 +26°C° 1.1 mm 1 mps 752 mmHg 95%
    19:00 +26°C° 4.1 mm 1 mps 753 mmHg 95%
    20:00 +26°C° 4.1 mm 1 mps 753 mmHg 96%
    21:00 +26°C° 4.1 mm 1 mps 753 mmHg 97%
    22:00 +25°C° 0.5 mm 1 mps 753 mmHg 97%
    23:00 +25°C° 0.5 mm 1 mps 753 mmHg 97%

    24 September, Tuesday

    Time Temperature Precipitation Wind Pressure Humidity
    00:00 +23°C° 0.5 mm 0 mps 753 mmHg 97%
    01:00 +23°C° 0 mm 0 mps 753 mmHg 97%
    02:00 +23°C° 0 mm 0 mps 752 mmHg 97%
    03:00 +23°C° 0 mm 0 mps 752 mmHg 98%
    04:00 +23°C° 0 mm 0 mps 752 mmHg 97%
    05:00 +23°C° 0 mm 0 mps 753 mmHg 97%
    06:00 +23°C° 0 mm 0 mps 753 mmHg 97%
    07:00 +24°C° 0 mm 0 mps 753 mmHg 92%
    08:00 +27°C° 0 mm 1 mps 753 mmHg 87%
    09:00 +28°C° 0 mm 1 mps 754 mmHg 83%
    10:00 +29°C° 0 mm 1 mps 753 mmHg 81%
    11:00 +29°C° 0 mm 1 mps 752 mmHg 79%
    12:00 +29°C° 0 mm 1 mps 752 mmHg 77%
    13:00 +29°C° 1.6 mm 1 mps 752 mmHg 78%
    14:00 +29°C° 1.6 mm 1 mps 751 mmHg 80%
    15:00 +29°C° 1.6 mm 2 mps 751 mmHg 81%
    16:00 +28°C° 2 mm 2 mps 751 mmHg 86%
    17:00 +27°C° 2 mm 2 mps 752 mmHg 91%
    18:00 +26°C° 2 mm 2 mps 752 mmHg 96%
    19:00 +25°C° 0.3 mm 2 mps 753 mmHg 96%
    20:00 +25°C° 0.3 mm 2 mps 753 mmHg 97%
    21:00 +25°C° 0.3 mm 2 mps 753 mmHg 97%
    22:00 +25°C° 0 mm 1 mps 753 mmHg 97%
    23:00 +25°C° 0 mm 1 mps 753 mmHg 98%

    25 September, Wednesday

    Time Temperature Precipitation Wind Pressure Humidity
    00:00 +25°C° 0 mm 1 mps 753 mmHg 98%
    01:00 +23°C° 0 mm 0 mps 753 mmHg 98%
    02:00 +23°C° 0 mm 0 mps 753 mmHg 98%
    03:00 +23°C° 0 mm 0 mps 753 mmHg 98%
    04:00 +23°C° 0 mm 0 mps 753 mmHg 97%
    05:00 +23°C° 0 mm 0 mps 753 mmHg 97%
    06:00 +23°C° 0 mm 0 mps 754 mmHg 97%
    07:00 +27°C° 0 mm 1 mps 754 mmHg 90%
    08:00 +28°C° 0 mm 1 mps 754 mmHg 84%
    09:00 +30°C° 0 mm 2 mps 754 mmHg 78%
    10:00 +30°C° 0 mm 2 mps 754 mmHg 74%
    11:00 +31°C° 0 mm 2 mps 753 mmHg 71%
    12:00 +32°C° 0 mm 2 mps 752 mmHg 67%
    13:00 +32°C° 0.1 mm 2 mps 752 mmHg 67%
    14:00 +31°C° 0.1 mm 3 mps 751 mmHg 68%
    15:00 +31°C° 0.1 mm 3 mps 751 mmHg 68%
    16:00 +30°C° 0.3 mm 3 mps 751 mmHg 75%
    17:00 +28°C° 0.3 mm 2 mps 751 mmHg 82%
    18:00 +27°C° 0.3 mm 2 mps 752 mmHg 89%
    19:00 +26°C° 0 mm 1 mps 752 mmHg 91%
    20:00 +26°C° 0 mm 1 mps 753 mmHg 92%
    21:00 +26°C° 0 mm 1 mps 753 mmHg 94%
    22:00 +26°C° 0 mm 1 mps 753 mmHg 95%
    23:00 +26°C° 0 mm 1 mps 753 mmHg 95%

    26 September, Thursday

    Time Temperature Precipitation Wind Pressure Humidity
    00:00 +26°C° 0 mm 1 mps 753 mmHg 95%
    01:00 +25°C° 0.7 mm 1 mps 753 mmHg 96%
    02:00 +25°C° 0.7 mm 1 mps 753 mmHg 96%
    03:00 +25°C° 0.7 mm 1 mps 753 mmHg 97%
    04:00 +25°C° 0.1 mm 1 mps 753 mmHg 97%
    05:00 +25°C° 0.1 mm 1 mps 753 mmHg 96%
    06:00 +25°C° 0.1 mm 1 mps 754 mmHg 96%
    07:00 +27°C° 0 mm 1 mps 754 mmHg 89%
    08:00 +28°C° 0 mm 2 mps 754 mmHg 83%
    09:00 +30°C° 0 mm 2 mps 754 mmHg 76%
    10:00 +30°C° 0.6 mm 2 mps 754 mmHg 74%
    11:00 +31°C° 0.6 mm 2 mps 753 mmHg 71%
    12:00 +32°C° 0.6 mm 2 mps 753 mmHg 69%
    13:00 +30°C° 1.8 mm 2 mps 752 mmHg 76%
    14:00 +29°C° 1.8 mm 2 mps 752 mmHg 83%
    15:00 +27°C° 1.8 mm 2 mps 752 mmHg 91%
    16:00 +27°C° 0.5 mm 2 mps 752 mmHg 92%
    17:00 +26°C° 0.5 mm 2 mps 752 mmHg 94%
    18:00 +26°C° 0.5 mm 1 mps 752 mmHg 96%
    19:00 +26°C° 0 mm 1 mps 753 mmHg 96%
    20:00 +25°C° 0 mm 1 mps 753 mmHg 96%
    21:00 +25°C° 0 mm 1 mps 754 mmHg 97%
    22:00 +25°C° 0.8 mm 1 mps 753 mmHg 97%
    23:00 +23°C° 0.8 mm 0 mps 753 mmHg 98%
    Show more